| time (UTC) | temp F | wind direction | speed MPH | gust MPH | rain 1hr in | rain 24hr in | rain mn in | humidity % | barometer mb |
| 20260905232503 | 60 | 235 | 5.0 | 13.0 | 0.00 | 0.00 | 0.00 | 66 | 1016.9 |
| 20260905232003 | 60 | 232 | 6.0 | 16.0 | 0.00 | 0.00 | 0.00 | 65 | 1016.9 |
| 20260905231717 | 60 | 235 | 6.0 | 16.0 | 0.00 | 0.00 | 0.00 | 65 | 1016.9 |
| 20260905231003 | 60 | 230 | 7.0 | 16.0 | 0.00 | 0.00 | 0.00 | 64 | 1017.0 |
| 20260905230503 | 61 | 227 | 7.0 | 16.0 | 0.00 | 0.00 | 0.00 | 63 | 1017.0 |
| 20260905230003 | 60 | 225 | 7.0 | 16.0 | 0.00 | 0.00 | 0.00 | 65 | 1017.0 |
| 20260905225503 | 61 | 223 | 7.0 | 16.0 | 0.00 | 0.00 | 0.00 | 64 | 1017.0 |
| 20260905225003 | 62 | 222 | 6.0 | 16.0 | 0.00 | 0.00 | 0.00 | 61 | 1017.0 |
| 20260905224503 | 63 | 225 | 6.0 | 16.0 | 0.00 | 0.00 | 0.00 | 58 | 1016.9 |
| 20260905224003 | 64 | 226 | 6.0 | 14.0 | 0.00 | 0.00 | 0.00 | 54 | 1016.8 |
| 20260905223503 | 65 | 229 | 5.0 | 16.0 | 0.00 | 0.00 | 0.00 | 52 | 1016.8 |
| 20260905223003 | 66 | 235 | 3.0 | 16.0 | 0.00 | 0.00 | 0.00 | 51 | 1016.8 |
| 20260905222503 | 66 | 232 | 2.0 | 8.0 | 0.00 | 0.00 | 0.00 | 50 | 1016.7 |
| 20260905222003 | 67 | 226 | 1.0 | 6.0 | 0.00 | 0.00 | 0.00 | 47 | 1016.6 |
| 20260905221503 | 66 | 234 | 1.0 | 4.0 | 0.00 | 0.00 | 0.00 | 46 | 1016.5 |
| 20260905221003 | 66 | 236 | 1.0 | 4.0 | 0.00 | 0.00 | 0.00 | 45 | 1016.4 |
| 20260905220503 | 66 | 232 | 0.0 | 4.0 | 0.00 | 0.00 | 0.00 | 45 | 1016.5 |
| 20260905220003 | 66 | 0 | 0.0 | 3.0 | 0.00 | 0.00 | 0.00 | 47 | 1016.5 |
| 20260905215503 | 66 | 0 | 0.0 | 1.0 | 0.00 | 0.00 | 0.00 | 46 | 1016.6 |
| 20260905215003 | 66 | 0 | 0.0 | 1.0 | 0.00 | 0.00 | 0.00 | 47 | 1016.6 |
| 20260905214503 | 66 | 0 | 0.0 | 2.0 | 0.00 | 0.00 | 0.00 | 49 | 1016.7 |
| 20260905214003 | 66 | 0 | 0.0 | 2.0 | 0.00 | 0.00 | 0.00 | 47 | 1016.6 |
| 20260905213718 | 67 | 214 | 0.0 | 2.0 | 0.00 | 0.00 | 0.00 | 45 | 1016.7 |
| 20260905213003 | 67 | 24 | 1.0 | 1.0 | 0.00 | 0.00 | 0.00 | 45 | 1016.6 |
| 20260905212503 | 67 | 327 | 1.0 | 3.0 | 0.00 | 0.00 | 0.00 | 45 | 1016.6 |
| 20260905212003 | 67 | 323 | 0.0 | 3.0 | 0.00 | 0.00 | 0.00 | 44 | 1016.5 |
| 20260905211503 | 68 | 0 | 0.0 | 4.0 | 0.00 | 0.00 | 0.00 | 44 | 1016.5 |
| 20260905211003 | 68 | 0 | 0.0 | 4.0 | 0.00 | 0.00 | 0.00 | 45 | 1016.5 |
| 20260905210503 | 68 | 350 | 0.0 | 3.0 | 0.00 | 0.00 | 0.00 | 44 | 1016.4 |
| 20260905210003 | 68 | 6 | 0.0 | 3.0 | 0.00 | 0.00 | 0.00 | 43 | 1016.5 |
| 20260905205503 | 68 | 222 | 1.0 | 3.0 | 0.00 | 0.00 | 0.00 | 42 | 1016.5 |
| 20260905205003 | 68 | 248 | 1.0 | 4.0 | 0.00 | 0.00 | 0.00 | 42 | 1016.5 |
| 20260905204503 | 68 | 347 | 1.0 | 4.0 | 0.00 | 0.00 | 0.00 | 42 | 1016.4 |
| 20260905204003 | 69 | 329 | 0.0 | 4.0 | 0.00 | 0.00 | 0.00 | 43 | 1016.4 |
| 20260905203503 | 69 | 336 | 1.0 | 1.0 | 0.00 | 0.00 | 0.00 | 41 | 1016.4 |
| 20260905203003 | 69 | 340 | 1.0 | 5.0 | 0.00 | 0.00 | 0.00 | 43 | 1016.4 |
| 20260905202503 | 69 | 341 | 1.0 | 5.0 | 0.00 | 0.00 | 0.00 | 43 | 1016.4 |
| 20260905202003 | 69 | 360 | 0.0 | 4.0 | 0.00 | 0.00 | 0.00 | 43 | 1016.5 |
| 20260905201503 | 69 | 60 | 1.0 | 4.0 | 0.00 | 0.00 | 0.00 | 43 | 1016.5 |
| 20260905201003 | 68 | 65 | 1.0 | 4.0 | 0.00 | 0.00 | 0.00 | 43 | 1016.5 |
| 20260905200718 | 68 | 58 | 1.0 | 5.0 | 0.00 | 0.00 | 0.00 | 43 | 1016.6 |
| 20260905200003 | 70 | 31 | 0.0 | 5.0 | 0.00 | 0.00 | 0.00 | 42 | 1016.8 |
| 20260905195503 | 70 | 0 | 0.0 | 4.0 | 0.00 | 0.00 | 0.00 | 44 | 1016.8 |
| 20260905195003 | 70 | 0 | 0.0 | 2.0 | 0.00 | 0.00 | 0.00 | 45 | 1016.9 |
| 20260905194503 | 69 | 83 | 0.0 | 3.0 | 0.00 | 0.00 | 0.00 | 47 | 1017.0 |
| 20260905194003 | 69 | 78 | 1.0 | 3.0 | 0.00 | 0.00 | 0.00 | 49 | 1017.1 |
| 20260905193503 | 69 | 52 | 1.0 | 4.0 | 0.00 | 0.00 | 0.00 | 50 | 1017.1 |
| 20260905193003 | 68 | 71 | 1.0 | 5.0 | 0.00 | 0.00 | 0.00 | 49 | 1017.0 |
| 20260905192718 | 68 | 75 | 1.0 | 5.0 | 0.00 | 0.00 | 0.00 | 48 | 1017.0 |
| 20260905192216 | 68 | 82 | 1.0 | 4.0 | 0.00 | 0.00 | 0.00 | 50 | 1017.1 |
| 20260905191503 | 67 | 48 | 1.0 | 4.0 | 0.00 | 0.00 | 0.00 | 50 | 1017.3 |
| 20260905191003 | 67 | 358 | 1.0 | 6.0 | 0.00 | 0.00 | 0.00 | 51 | 1017.3 |
| 20260905190505 | 66 | 349 | 1.0 | 6.0 | 0.00 | 0.00 | 0.00 | 50 | 1017.3 |
| 20260905190003 | 67 | 346 | 1.0 | 5.0 | 0.00 | 0.00 | 0.00 | 51 | 1017.4 |
| 20260905185503 | 66 | 354 | 1.0 | 4.0 | 0.00 | 0.00 | 0.00 | 51 | 1017.5 |
| 20260905185003 | 66 | 71 | 1.0 | 3.0 | 0.00 | 0.00 | 0.00 | 52 | 1017.5 |
| 20260905184503 | 66 | 349 | 1.0 | 4.0 | 0.00 | 0.00 | 0.00 | 53 | 1017.5 |
| 20260905184003 | 66 | 344 | 1.0 | 4.0 | 0.00 | 0.00 | 0.00 | 52 | 1017.5 |
| 20260905183503 | 65 | 7 | 1.0 | 3.0 | 0.00 | 0.00 | 0.00 | 52 | 1017.5 |
| 20260905183003 | 65 | 346 | 0.0 | 3.0 | 0.00 | 0.00 | 0.00 | 52 | 1017.6 |
| 20260905182503 | 66 | 343 | 1.0 | 3.0 | 0.00 | 0.00 | 0.00 | 53 | 1017.6 |
| 20260905182003 | 65 | 20 | 1.0 | 4.0 | 0.00 | 0.00 | 0.00 | 56 | 1017.6 |
| 20260905181503 | 65 | 283 | 1.0 | 4.0 | 0.00 | 0.00 | 0.00 | 54 | 1017.7 |
| 20260905181003 | 65 | 198 | 0.0 | 3.0 | 0.00 | 0.00 | 0.00 | 55 | 1017.7 |
| 20260905180503 | 65 | 0 | 0.0 | 3.0 | 0.00 | 0.00 | 0.00 | 54 | 1017.9 |
| 20260905180003 | 65 | 94 | 0.0 | 2.0 | 0.00 | 0.00 | 0.00 | 55 | 1017.9 |
| 20260905175503 | 64 | 103 | 0.0 | 2.0 | 0.00 | 0.00 | 0.00 | 54 | 1017.9 |
| 20260905175218 | 64 | 113 | 0.0 | 2.0 | 0.00 | 0.00 | 0.00 | 52 | 1018.0 |
| 20260905174503 | 65 | 0 | 0.0 | 3.0 | 0.00 | 0.00 | 0.00 | 56 | 1018.0 |
| 20260905174003 | 64 | 0 | 0.0 | 3.0 | 0.00 | 0.00 | 0.00 | 56 | 1017.9 |
| 20260905173717 | 64 | 0 | 0.0 | 3.0 | 0.00 | 0.00 | 0.00 | 55 | 1017.9 |
| 20260905173003 | 63 | 221 | 0.0 | 2.0 | 0.00 | 0.00 | 0.00 | 59 | 1017.8 |
| 20260905172717 | 63 | 236 | 1.0 | 2.0 | 0.00 | 0.00 | 0.00 | 60 | 1017.8 |
| 20260905172003 | 62 | 330 | 0.0 | 3.0 | 0.00 | 0.00 | 0.00 | 61 | 1018.0 |
| 20260905171503 | 62 | 0 | 0.0 | 2.0 | 0.00 | 0.00 | 0.00 | 59 | 1017.9 |
| 20260905171003 | 62 | 0 | 0.0 | 2.0 | 0.00 | 0.00 | 0.00 | 59 | 1017.9 |
| 20260905170717 | 62 | 0 | 0.0 | 2.0 | 0.00 | 0.00 | 0.00 | 61 | 1017.9 |
| 20260905170003 | 61 | 0 | 0.0 | 2.0 | 0.00 | 0.00 | 0.00 | 64 | 1017.9 |
| 20260905165503 | 61 | 0 | 0.0 | 2.0 | 0.00 | 0.00 | 0.00 | 68 | 1017.9 |
| 20260905165003 | 60 | 66 | 0.0 | 2.0 | 0.00 | 0.00 | 0.00 | 68 | 1018.0 |
| 20260905164503 | 60 | 78 | 1.0 | 2.0 | 0.00 | 0.00 | 0.00 | 70 | 1018.0 |
| 20260905164003 | 59 | 83 | 1.0 | 2.0 | 0.00 | 0.00 | 0.00 | 71 | 1018.0 |
| 20260905163503 | 59 | 80 | 1.0 | 2.0 | 0.00 | 0.00 | 0.00 | 71 | 1018.0 |
| 20260905163003 | 58 | 86 | 1.0 | 2.0 | 0.00 | 0.00 | 0.00 | 71 | 1018.0 |
| 20260905162503 | 58 | 94 | 1.0 | 2.0 | 0.00 | 0.00 | 0.00 | 73 | 1018.0 |
| 20260905162003 | 58 | 81 | 1.0 | 2.0 | 0.00 | 0.00 | 0.00 | 75 | 1018.0 |
| 20260905161503 | 57 | 83 | 0.0 | 2.0 | 0.00 | 0.00 | 0.00 | 77 | 1018.0 |
| 20260905161003 | 56 | 0 | 2.0 | 2.0 | 0.00 | 0.00 | 0.00 | 79 | 1017.9 |
| 20260905160503 | 55 | 0 | 3.0 | 3.0 | 0.00 | 0.00 | 0.00 | 80 | 1017.9 |
| 20260905160003 | 54 | 0 | 3.0 | 3.0 | 0.00 | 0.00 | 0.00 | 81 | 1017.9 |
| 20260905155503 | 54 | 0 | 3.0 | 3.0 | 0.00 | 0.00 | 0.00 | 83 | 1017.8 |
| 20260905155003 | 53 | 0 | 3.0 | 3.0 | 0.00 | 0.00 | 0.00 | 83 | 1017.8 |
| 20260905154503 | 52 | 0 | 2.0 | 2.0 | 0.00 | 0.00 | 0.00 | 87 | 1017.9 |
| 20260905154003 | 51 | 0 | 1.0 | 1.0 | 0.00 | 0.00 | 0.00 | 89 | 1017.9 |
| 20260905153503 | 51 | 0 | 1.0 | 1.0 | 0.00 | 0.00 | 0.00 | 88 | 1018.0 |
| 20260905153217 | 51 | 0 | 1.0 | 1.0 | 0.00 | 0.00 | 0.00 | 88 | 1018.0 |
| 20260905152503 | 50 | 0 | 1.0 | 1.0 | 0.00 | 0.00 | 0.00 | 89 | 1018.1 |
| 20260905152003 | 49 | 0 | 1.0 | 1.0 | 0.00 | 0.00 | 0.00 | 90 | 1018.2 |
| 20260905151503 | 48 | 0 | 0.0 | 0.0 | 0.00 | 0.00 | 0.00 | 91 | 1018.2 |
| 20260905151003 | 48 | 0 | 0.0 | 0.0 | 0.00 | 0.00 | 0.00 | 91 | 1018.2 |
| 20260905150503 | 47 | 0 | 0.0 | 0.0 | 0.00 | 0.00 | 0.00 | 91 | 1018.2 |
| 20260905150003 | 46 | 0 | 0.0 | 0.0 | 0.00 | 0.00 | 0.00 | 92 | 1018.2 |
| 20260905145503 | 46 | 0 | 0.0 | 0.0 | 0.00 | 0.00 | 0.00 | 92 | 1018.1 |
| 20260905145003 | 45 | 0 | 0.0 | 0.0 | 0.00 | 0.00 | 0.00 | 92 | 1018.0 |
| 20260905144503 | 44 | 0 | 0.0 | 0.0 | 0.00 | 0.00 | 0.00 | 92 | 1018.0 |
| 20260905144003 | 44 | 0 | 0.0 | 0.0 | 0.00 | 0.00 | 0.00 | 93 | 1018.0 |
| 20260905143503 | 43 | 0 | 0.0 | 0.0 | 0.00 | 0.00 | 0.00 | 93 | 1018.0 |
| 20260905143217 | 43 | 0 | 0.0 | 0.0 | 0.00 | 0.00 | 0.00 | 93 | 1017.9 |
| 20260905142503 | 42 | 0 | 1.0 | 1.0 | 0.00 | 0.00 | 0.00 | 93 | 1017.9 |
| 20260905142217 | 41 | 0 | 1.0 | 1.0 | 0.00 | 0.00 | 0.00 | 93 | 1017.9 |
| 20260905141503 | 41 | 0 | 3.0 | 3.0 | 0.00 | 0.00 | 0.00 | 93 | 1018.0 |
| 20260905141003 | 41 | 0 | 3.0 | 3.0 | 0.00 | 0.00 | 0.00 | 93 | 1018.0 |
| 20260905140503 | 40 | 0 | 1.0 | 1.0 | 0.00 | 0.00 | 0.00 | 93 | 1017.9 |
| 20260905140216 | 40 | 0 | 0.0 | 0.0 | 0.00 | 0.00 | 0.00 | 93 | 1017.7 |
| 20260905135503 | 39 | 0 | 0.0 | 0.0 | 0.00 | 0.00 | 0.00 | 93 | 1017.6 |
| 20260905135003 | 38 | 0 | 0.0 | 0.0 | 0.00 | 0.00 | 0.00 | 92 | 1017.6 |
| 20260905134503 | 38 | 0 | 0.0 | 0.0 | 0.00 | 0.00 | 0.00 | 92 | 1017.6 |
| 20260905134003 | 38 | 0 | 0.0 | 0.0 | 0.00 | 0.00 | 0.00 | 92 | 1017.6 |
| 20260905133503 | 38 | 0 | 0.0 | 0.0 | 0.00 | 0.00 | 0.00 | 92 | 1017.4 |
| 20260905133003 | 38 | 0 | 0.0 | 0.0 | 0.00 | 0.00 | 0.00 | 92 | 1017.3 |
| 20260905132503 | 38 | 0 | 0.0 | 0.0 | 0.00 | 0.00 | 0.00 | 92 | 1017.3 |
| 20260905132218 | 38 | 0 | 0.0 | 0.0 | 0.00 | 0.00 | 0.00 | 92 | 1017.3 |
| 20260905131503 | 38 | 0 | 0.0 | 0.0 | 0.00 | 0.00 | 0.00 | 92 | 1017.2 |
| 20260905131003 | 38 | 0 | 0.0 | 0.0 | 0.00 | 0.00 | 0.00 | 92 | 1017.2 |
| 20260905130503 | 38 | 0 | 0.0 | 0.0 | 0.00 | 0.00 | 0.00 | 92 | 1017.2 |
| 20260905130003 | 38 | 0 | 0.0 | 0.0 | 0.00 | 0.00 | 0.00 | 92 | 1017.2 |
| 20260905125503 | 38 | 0 | 0.0 | 0.0 | 0.00 | 0.00 | 0.00 | 92 | 1017.1 |
| 20260905125003 | 38 | 0 | 0.0 | 0.0 | 0.00 | 0.00 | 0.00 | 92 | 1017.1 |
| 20260905124717 | 38 | 0 | 0.0 | 0.0 | 0.00 | 0.00 | 0.00 | 92 | 1017.0 |
| 20260905124003 | 38 | 0 | 0.0 | 0.0 | 0.00 | 0.00 | 0.00 | 92 | 1016.9 |
| 20260905123503 | 38 | 0 | 0.0 | 0.0 | 0.00 | 0.00 | 0.00 | 92 | 1016.9 |
| 20260905123003 | 38 | 0 | 0.0 | 0.0 | 0.00 | 0.00 | 0.00 | 92 | 1016.9 |
| 20260905122503 | 38 | 0 | 0.0 | 0.0 | 0.00 | 0.00 | 0.00 | 92 | 1016.9 |
| 20260905122003 | 38 | 0 | 0.0 | 0.0 | 0.00 | 0.00 | 0.00 | 92 | 1016.9 |
| 20260905121503 | 38 | 0 | 0.0 | 0.0 | 0.00 | 0.00 | 0.00 | 92 | 1016.8 |
| 20260905121003 | 38 | 0 | 0.0 | 0.0 | 0.00 | 0.00 | 0.00 | 92 | 1016.8 |
| 20260905120503 | 39 | 0 | 0.0 | 0.0 | 0.00 | 0.00 | 0.00 | 92 | 1016.7 |
| 20260905120003 | 39 | 0 | 0.0 | 0.0 | 0.00 | 0.00 | 0.00 | 92 | 1016.8 |
| 20260905115503 | 39 | 0 | 0.0 | 0.0 | 0.00 | 0.00 | 0.00 | 93 | 1016.7 |
| 20260905115003 | 39 | 0 | 0.0 | 0.0 | 0.00 | 0.00 | 0.00 | 92 | 1016.7 |
| 20260905114717 | 39 | 0 | 0.0 | 0.0 | 0.00 | 0.00 | 0.00 | 92 | 1016.7 |
| 20260905114003 | 39 | 0 | 0.0 | 0.0 | 0.00 | 0.00 | 0.00 | 92 | 1016.6 |
| 20260905113503 | 39 | 0 | 0.0 | 0.0 | 0.00 | 0.00 | 0.00 | 92 | 1016.6 |
| 20260905113003 | 39 | 0 | 1.0 | 1.0 | 0.00 | 0.00 | 0.00 | 92 | 1016.6 |
| 20260905112503 | 39 | 0 | 1.0 | 1.0 | 0.00 | 0.00 | 0.00 | 92 | 1016.6 |
| 20260905112003 | 39 | 0 | 1.0 | 1.0 | 0.00 | 0.00 | 0.00 | 92 | 1016.5 |
| 20260905111503 | 40 | 0 | 1.0 | 1.0 | 0.00 | 0.00 | 0.00 | 92 | 1016.3 |
| 20260905111003 | 40 | 0 | 1.0 | 1.0 | 0.00 | 0.00 | 0.00 | 92 | 1016.4 |
| 20260905110718 | 40 | 0 | 1.0 | 1.0 | 0.00 | 0.00 | 0.00 | 92 | 1016.3 |
| 20260905110003 | 39 | 0 | 0.0 | 0.0 | 0.00 | 0.00 | 0.00 | 92 | 1016.1 |
| 20260905105503 | 39 | 0 | 0.0 | 0.0 | 0.00 | 0.00 | 0.00 | 92 | 1016.1 |
| 20260905105003 | 39 | 0 | 1.0 | 1.0 | 0.00 | 0.00 | 0.00 | 92 | 1016.0 |
| 20260905104503 | 39 | 0 | 1.0 | 1.0 | 0.00 | 0.00 | 0.00 | 92 | 1015.9 |
| 20260905104217 | 38 | 0 | 1.0 | 1.0 | 0.00 | 0.00 | 0.00 | 92 | 1015.9 |
| 20260905103718 | 38 | 0 | 0.0 | 0.0 | 0.00 | 0.00 | 0.00 | 92 | 1015.9 |
| 20260905103003 | 38 | 0 | 0.0 | 0.0 | 0.00 | 0.00 | 0.00 | 92 | 1015.9 |
| 20260905102718 | 38 | 0 | 0.0 | 0.0 | 0.00 | 0.00 | 0.00 | 92 | 1015.9 |
| 20260905102003 | 38 | 0 | 0.0 | 0.0 | 0.00 | 0.00 | 0.00 | 92 | 1015.8 |
| 20260905101503 | 38 | 0 | 0.0 | 0.0 | 0.00 | 0.00 | 0.00 | 92 | 1015.8 |
| 20260905101003 | 39 | 0 | 0.0 | 0.0 | 0.00 | 0.00 | 0.00 | 92 | 1015.7 |
| 20260905100503 | 39 | 0 | 0.0 | 0.0 | 0.00 | 0.00 | 0.00 | 92 | 1015.6 |
| 20260905100003 | 39 | 0 | 0.0 | 0.0 | 0.00 | 0.00 | 0.00 | 92 | 1015.7 |
| 20260905095503 | 39 | 0 | 0.0 | 0.0 | 0.00 | 0.00 | 0.00 | 92 | 1015.7 |
| 20260905095003 | 39 | 0 | 0.0 | 0.0 | 0.00 | 0.00 | 0.00 | 92 | 1015.8 |
| 20260905094503 | 40 | 0 | 0.0 | 0.0 | 0.00 | 0.00 | 0.00 | 92 | 1015.9 |
| 20260905094003 | 40 | 0 | 0.0 | 0.0 | 0.00 | 0.00 | 0.00 | 92 | 1016.0 |
| 20260905093718 | 40 | 0 | 0.0 | 0.0 | 0.00 | 0.00 | 0.00 | 92 | 1016.0 |
| 20260905093003 | 39 | 0 | 0.0 | 0.0 | 0.00 | 0.00 | 0.00 | 91 | 1016.1 |
| 20260905092503 | 39 | 0 | 1.0 | 1.0 | 0.00 | 0.00 | 0.00 | 91 | 1016.1 |
| 20260905092003 | 40 | 0 | 1.0 | 1.0 | 0.00 | 0.01 | 0.00 | 91 | 1016.1 |
| 20260905091503 | 40 | 0 | 0.0 | 0.0 | 0.00 | 0.01 | 0.00 | 91 | 1016.1 |
| 20260905091003 | 41 | 0 | 0.0 | 0.0 | 0.00 | 0.01 | 0.00 | 91 | 1016.1 |
| 20260905090503 | 41 | 0 | 0.0 | 0.0 | 0.00 | 0.01 | 0.00 | 91 | 1016.2 |
| 20260905090003 | 41 | 0 | 0.0 | 0.0 | 0.00 | 0.01 | 0.00 | 91 | 1016.2 |
| 20260905085503 | 41 | 0 | 0.0 | 0.0 | 0.00 | 0.01 | 0.00 | 90 | 1016.2 |
| 20260905085217 | 41 | 0 | 0.0 | 0.0 | 0.00 | 0.01 | 0.00 | 90 | 1016.2 |
| 20260905084503 | 42 | 0 | 0.0 | 0.0 | 0.00 | 0.01 | 0.00 | 89 | 1016.1 |
| 20260905084003 | 42 | 0 | 1.0 | 1.0 | 0.00 | 0.01 | 0.00 | 88 | 1016.1 |
| 20260905083503 | 42 | 0 | 1.0 | 1.0 | 0.00 | 0.01 | 0.00 | 88 | 1016.1 |
| 20260905083216 | 43 | 0 | 0.0 | 0.0 | 0.00 | 0.01 | 0.00 | 88 | 1016.1 |
| 20260905082503 | 44 | 0 | 0.0 | 0.0 | 0.00 | 0.01 | 0.00 | 88 | 1016.1 |
| 20260905082003 | 44 | 0 | 0.0 | 0.0 | 0.00 | 0.01 | 0.00 | 88 | 1016.2 |
| 20260905081503 | 45 | 0 | 1.0 | 1.0 | 0.00 | 0.02 | 0.00 | 89 | 1016.1 |
| 20260905081003 | 45 | 0 | 1.0 | 1.0 | 0.00 | 0.02 | 0.00 | 89 | 1016.2 |
| 20260905080503 | 45 | 0 | 1.0 | 1.0 | 0.00 | 0.02 | 0.00 | 89 | 1016.1 |
| 20260905080003 | 45 | 0 | 1.0 | 1.0 | 0.00 | 0.02 | 0.00 | 90 | 1016.1 |
| 20260905075717 | 44 | 0 | 1.0 | 1.0 | 0.00 | 0.02 | 0.00 | 91 | 1016.1 |
| 20260905075003 | 44 | 0 | 1.0 | 1.0 | 0.00 | 0.02 | 0.00 | 91 | 1016.1 |
| 20260905074503 | 44 | 0 | 1.0 | 1.0 | 0.00 | 0.02 | 0.00 | 90 | 1016.2 |
| 20260905074003 | 44 | 0 | 1.0 | 1.0 | 0.00 | 0.02 | 0.00 | 90 | 1016.2 |
| 20260905073503 | 44 | 0 | 1.0 | 1.0 | 0.00 | 0.03 | 0.00 | 90 | 1016.2 |
| 20260905073005 | 44 | 0 | 0.0 | 0.0 | 0.00 | 0.03 | 0.00 | 90 | 1016.1 |
| 20260905072503 | 44 | 0 | 0.0 | 0.0 | 0.00 | 0.03 | 0.00 | 90 | 1016.0 |
| 20260905072218 | 44 | 0 | 0.0 | 0.0 | 0.00 | 0.03 | 0.00 | 90 | 1016.0 |
| 20260905071503 | 44 | 0 | 1.0 | 1.0 | 0.00 | 0.03 | 0.00 | 89 | 1015.9 |
| 20260905071003 | 45 | 0 | 1.0 | 1.0 | 0.00 | 0.03 | 0.00 | 90 | 1015.8 |
| 20260905070503 | 45 | 0 | 0.0 | 0.0 | 0.00 | 0.03 | 0.00 | 91 | 1015.6 |
| 20260905070005 | 44 | 0 | 0.0 | 0.0 | 0.00 | 0.03 | 0.00 | 92 | 1015.6 |
| 20260905065503 | 44 | 0 | 0.0 | 0.0 | 0.00 | 0.03 | 0.03 | 91 | 1015.5 |
| 20260905065003 | 43 | 0 | 0.0 | 0.0 | 0.00 | 0.03 | 0.03 | 91 | 1015.5 |
| 20260905064717 | 43 | 0 | 0.0 | 0.0 | 0.00 | 0.03 | 0.03 | 91 | 1015.4 |
| 20260905064218 | 43 | 0 | 0.0 | 0.0 | 0.00 | 0.03 | 0.03 | 91 | 1015.4 |
| 20260905063503 | 43 | 0 | 0.0 | 0.0 | 0.00 | 0.03 | 0.03 | 91 | 1015.3 |
| 20260905063003 | 43 | 0 | 0.0 | 0.0 | 0.00 | 0.03 | 0.03 | 90 | 1015.3 |
| 20260905062503 | 43 | 0 | 0.0 | 0.0 | 0.00 | 0.03 | 0.03 | 90 | 1015.2 |
| 20260905062003 | 43 | 0 | 0.0 | 0.0 | 0.00 | 0.03 | 0.03 | 90 | 1015.2 |
| 20260905061503 | 43 | 0 | 1.0 | 1.0 | 0.00 | 0.04 | 0.03 | 89 | 1015.2 |
| 20260905061003 | 43 | 0 | 1.0 | 1.0 | 0.00 | 0.04 | 0.03 | 89 | 1015.2 |
| 20260905060503 | 43 | 0 | 1.0 | 1.0 | 0.00 | 0.04 | 0.03 | 89 | 1015.2 |
| 20260905060003 | 43 | 0 | 1.0 | 1.0 | 0.00 | 0.05 | 0.03 | 89 | 1015.3 |
| 20260905055503 | 43 | 0 | 0.0 | 0.0 | 0.00 | 0.06 | 0.03 | 89 | 1015.2 |
| 20260905055217 | 43 | 0 | 0.0 | 0.0 | 0.00 | 0.06 | 0.03 | 89 | 1015.2 |
| 20260905054503 | 44 | 0 | 1.0 | 1.0 | 0.00 | 0.08 | 0.03 | 88 | 1015.2 |
| 20260905054003 | 44 | 0 | 1.0 | 1.0 | 0.00 | 0.10 | 0.03 | 88 | 1015.2 |
| 20260905053716 | 44 | 0 | 1.0 | 1.0 | 0.00 | 0.11 | 0.03 | 88 | 1015.2 |
| 20260905053003 | 44 | 0 | 0.0 | 0.0 | 0.00 | 0.13 | 0.03 | 86 | 1015.2 |
| 20260905052503 | 44 | 0 | 1.0 | 1.0 | 0.00 | 0.15 | 0.03 | 84 | 1015.3 |
| 20260905052003 | 45 | 0 | 1.0 | 1.0 | 0.00 | 0.16 | 0.03 | 84 | 1015.4 |
| 20260905051718 | 45 | 0 | 1.0 | 1.0 | 0.00 | 0.17 | 0.03 | 84 | 1015.4 |
| 20260905051003 | 45 | 0 | 1.0 | 1.0 | 0.00 | 0.19 | 0.03 | 84 | 1015.4 |
| 20260905050503 | 46 | 0 | 1.0 | 1.0 | 0.00 | 0.20 | 0.03 | 83 | 1015.6 |
| 20260905050003 | 46 | 0 | 1.0 | 1.0 | 0.00 | 0.21 | 0.03 | 83 | 1015.6 |
| 20260905045503 | 47 | 0 | 1.0 | 1.0 | 0.00 | 0.21 | 0.03 | 81 | 1015.6 |
| 20260905045003 | 48 | 0 | 0.0 | 0.0 | 0.00 | 0.21 | 0.03 | 83 | 1015.6 |
| 20260905044503 | 48 | 0 | 1.0 | 1.0 | 0.00 | 0.22 | 0.03 | 83 | 1015.7 |
| 20260905044003 | 48 | 0 | 1.0 | 1.0 | 0.00 | 0.22 | 0.03 | 83 | 1015.8 |
| 20260905043503 | 47 | 0 | 0.0 | 0.0 | 0.00 | 0.23 | 0.03 | 84 | 1015.8 |
| 20260905043003 | 47 | 0 | 0.0 | 0.0 | 0.00 | 0.24 | 0.03 | 83 | 1015.8 |
| 20260905042503 | 47 | 152 | 0.0 | 1.0 | 0.00 | 0.25 | 0.03 | 82 | 1015.9 |
| 20260905042003 | 47 | 150 | 1.0 | 2.0 | 0.00 | 0.26 | 0.03 | 82 | 1015.9 |
| 20260905041503 | 47 | 163 | 0.0 | 2.0 | 0.00 | 0.27 | 0.03 | 82 | 1016.0 |
| 20260905041003 | 48 | 0 | 0.0 | 2.0 | 0.00 | 0.28 | 0.03 | 81 | 1015.9 |
| 20260905040503 | 48 | 0 | 0.0 | 1.0 | 0.00 | 0.29 | 0.03 | 78 | 1015.8 |
| 20260905040003 | 49 | 0 | 0.0 | 1.0 | 0.00 | 0.29 | 0.03 | 77 | 1015.8 |
| 20260905035503 | 50 | 0 | 0.0 | 1.0 | 0.00 | 0.30 | 0.03 | 76 | 1015.7 |
| 20260905035003 | 50 | 0 | 0.0 | 1.0 | 0.00 | 0.30 | 0.03 | 75 | 1015.7 |
| 20260905034503 | 50 | 0 | 0.0 | 1.0 | 0.00 | 0.31 | 0.03 | 75 | 1015.7 |
| 20260905034003 | 51 | 0 | 0.0 | 1.0 | 0.00 | 0.31 | 0.03 | 75 | 1015.7 |
| 20260905033503 | 52 | 0 | 0.0 | 1.0 | 0.00 | 0.32 | 0.03 | 73 | 1015.7 |
| 20260905033217 | 52 | 0 | 0.0 | 1.0 | 0.00 | 0.32 | 0.03 | 73 | 1015.8 |
| 20260905032503 | 53 | 0 | 0.0 | 2.0 | 0.00 | 0.33 | 0.03 | 73 | 1015.8 |
| 20260905032003 | 54 | 0 | 0.0 | 1.0 | 0.00 | 0.34 | 0.03 | 72 | 1015.7 |
| 20260905031717 | 54 | 0 | 0.0 | 1.0 | 0.00 | 0.34 | 0.03 | 70 | 1015.7 |
| 20260905031003 | 54 | 0 | 0.0 | 1.0 | 0.00 | 0.35 | 0.03 | 69 | 1015.7 |
| 20260905030503 | 54 | 0 | 0.0 | 1.0 | 0.00 | 0.36 | 0.03 | 71 | 1015.7 |
| 20260905030003 | 54 | 0 | 0.0 | 1.0 | 0.00 | 0.37 | 0.03 | 70 | 1015.6 |
| 20260905025503 | 55 | 0 | 0.0 | 1.0 | 0.00 | 0.38 | 0.03 | 69 | 1015.4 |
| 20260905025003 | 56 | 0 | 0.0 | 0.0 | 0.00 | 0.39 | 0.03 | 68 | 1015.3 |
| 20260905024503 | 56 | 0 | 0.0 | 0.0 | 0.00 | 0.39 | 0.03 | 67 | 1015.3 |
| 20260905024003 | 57 | 0 | 0.0 | 0.0 | 0.00 | 0.40 | 0.03 | 65 | 1015.3 |
| 20260905023503 | 58 | 0 | 0.0 | 0.0 | 0.00 | 0.41 | 0.03 | 63 | 1015.2 |
| 20260905023218 | 58 | 0 | 0.0 | 1.0 | 0.00 | 0.42 | 0.03 | 61 | 1015.2 |
| 20260905022717 | 59 | 0 | 0.0 | 1.0 | 0.00 | 0.43 | 0.03 | 60 | 1015.2 |
| 20260905022218 | 59 | 0 | 0.0 | 1.0 | 0.00 | 0.45 | 0.03 | 58 | 1015.2 |
| 20260905021503 | 60 | 328 | 0.0 | 1.0 | 0.00 | 0.46 | 0.03 | 56 | 1015.0 |
| 20260905021218 | 60 | 325 | 0.0 | 2.0 | 0.00 | 0.47 | 0.03 | 55 | 1015.0 |
| 20260905020503 | 61 | 321 | 1.0 | 3.0 | 0.00 | 0.48 | 0.03 | 53 | 1015.0 |
| 20260905020003 | 62 | 321 | 1.0 | 3.0 | 0.00 | 0.49 | 0.03 | 53 | 1015.0 |
| 20260905015503 | 63 | 322 | 2.0 | 4.0 | 0.00 | 0.50 | 0.03 | 51 | 1015.0 |
| 20260905015003 | 63 | 321 | 2.0 | 4.0 | 0.00 | 0.51 | 0.03 | 50 | 1015.0 |
| 20260905014503 | 63 | 321 | 2.0 | 5.0 | 0.00 | 0.52 | 0.03 | 51 | 1015.0 |
| 20260905014003 | 63 | 325 | 2.0 | 5.0 | 0.00 | 0.52 | 0.03 | 50 | 1015.0 |
| 20260905013503 | 64 | 327 | 2.0 | 5.0 | 0.00 | 0.52 | 0.03 | 50 | 1015.0 |
| 20260905013003 | 64 | 326 | 2.0 | 5.0 | 0.00 | 0.52 | 0.03 | 49 | 1015.0 |
| 20260905012503 | 64 | 327 | 2.0 | 5.0 | 0.00 | 0.52 | 0.03 | 49 | 1015.0 |
| 20260905012003 | 64 | 324 | 1.0 | 5.0 | 0.00 | 0.52 | 0.03 | 49 | 1015.0 |
| 20260905011503 | 64 | 322 | 1.0 | 4.0 | 0.00 | 0.52 | 0.03 | 48 | 1015.0 |
| 20260905011218 | 64 | 328 | 1.0 | 4.0 | 0.00 | 0.52 | 0.03 | 48 | 1015.0 |
| 20260905010717 | 64 | 331 | 1.0 | 4.0 | 0.00 | 0.52 | 0.03 | 46 | 1014.9 |
| 20260905010004 | 64 | 326 | 1.0 | 4.0 | 0.00 | 0.52 | 0.03 | 47 | 1014.8 |
| 20260905005503 | 64 | 328 | 1.0 | 4.0 | 0.00 | 0.52 | 0.03 | 49 | 1014.8 |
| 20260905005003 | 64 | 324 | 1.0 | 4.0 | 0.00 | 0.52 | 0.03 | 46 | 1014.8 |
| 20260905004503 | 65 | 306 | 1.0 | 3.0 | 0.00 | 0.52 | 0.03 | 47 | 1014.9 |
| 20260905004003 | 64 | 308 | 1.0 | 3.0 | 0.00 | 0.52 | 0.03 | 47 | 1014.9 |
| 20260905003503 | 64 | 324 | 1.0 | 5.0 | 0.00 | 0.52 | 0.03 | 49 | 1014.9 |
| 20260905003003 | 64 | 327 | 2.0 | 5.0 | 0.00 | 0.52 | 0.03 | 50 | 1014.9 |
| 20260905002716 | 64 | 328 | 1.0 | 5.0 | 0.00 | 0.52 | 0.03 | 49 | 1014.9 |
| 20260905002003 | 64 | 322 | 1.0 | 5.0 | 0.00 | 0.52 | 0.03 | 50 | 1014.8 |
| 20260905001503 | 63 | 298 | 1.0 | 3.0 | 0.00 | 0.52 | 0.03 | 50 | 1014.7 |
| 20260905001003 | 63 | 311 | 1.0 | 3.0 | 0.00 | 0.52 | 0.03 | 49 | 1014.7 |
| 20260905000503 | 64 | 324 | 1.0 | 4.0 | 0.00 | 0.52 | 0.03 | 50 | 1014.6 |
| 20260905000219 | 64 | 321 | 1.0 | 4.0 | 0.00 | 0.52 | 0.03 | 49 | 1014.7 |
| 20260904235503 | 64 | 303 | 1.0 | 3.0 | 0.00 | 0.52 | 0.03 | 46 | 1014.6 |
| 20260904235003 | 65 | 320 | 1.0 | 4.0 | 0.00 | 0.52 | 0.03 | 46 | 1014.6 |
| 20260904234503 | 65 | 318 | 1.0 | 4.0 | 0.00 | 0.52 | 0.03 | 44 | 1014.5 |
| 20260904234003 | 65 | 306 | 2.0 | 4.0 | 0.00 | 0.52 | 0.03 | 45 | 1014.5 |
| 20260904233503 | 65 | 319 | 1.0 | 6.0 | 0.00 | 0.52 | 0.03 | 46 | 1014.6 |